SCP
-0 -0 -0 -0 -0 -0 -0 -0 -0 -0 -0 -0 -0 -0 -0 -0 -0 -0 0 0 0 0 0 0 -0 -0 0 0 0 0 0 -0 0 0 0 0 0 0 0 0 0 0 0 0 0 0 0
-0 -0 -0 -0 -0 -0 -0 -0 -0 -0 -0 -0 -0 -0 -0 -0 -0 0 0 0 0 0 0 -0 -0 -0 0 0 0 0 0 0 0 0 -0 0 0 0 0 0 0 -0 -0 0 0 0 0
-0 -0 -0 -0 -0 -0 -0 -0 -0 -0 -0 -0 -0 -0 -0 -0 -0 0 0 0 0 0 0 -0 -0 0 0 -0 0 0 0 0 0 -0 0 -0 0 0 0 -0 0 -0 -0 0 -0 0 0
-0 -0 -0 -0 -0 -0 -0 -0 -0 -0 -0 -0 -0 -0 -0 -0 -0 -0 0 0 0 0 0 0 -0 0 0 0 0 0 0 0 0 0 0 0 0 0 0 0 0 -0 0 0 0 0 0
-0 -0 -0 -0 -0 -0 -0 -0 -0 -0 -0 -0 -0 -0 -0 -0 -0 -0 0 0 0 0 0 0 0 0 0 0 0 -0 0 0 0 0 0 0 0 0 0 0 0 0 0 0 0 -0 0
-0 -0 -0 -0 -0 -0 -0 -0 -0 -0 -0 -0 -0 -0 -0 -0 -0 -0 -0 -0 0 0 0 0 0 0 0 0 0 0 -0 0 0 0 0 0 0 0 0 0 0 0 0 0 0 0 0
-0 -0 -0 -0 -0 -0 -0 -0 -0 -0 -0 -0 -0 -0 -0 -0 -0 -0 0 0 0 0 0 -0 -0 0 0 0 0 0 0 0 0 0 0 0 0 0 0 0 0 0 0 0 0 0 0
-0 -0 -0 -0 -0 -0 -0 -0 -0 -0 -0 -0 -0 -0 -0 -0 -0 0 0 0 0 -0 0 -0 -0 -0 -0 0 0 0 0 0 0 0 0 0 0 0 0 0 0 0 0 0 0 0 0
-0 -0 -0 -0 -0 -0 -0 -0 -0 -0 -0 -0 -0 -0 -0 -0 -0 0 0 0 0 0 0 0 0 0 0 0 0 -0 0 0 0 0 0 0 0 0 0 0 0 0 0 0 0 0 0
-0 -0 -0 -0 -0 -0 -0 -0 -0 -0 -0 -0 -0 -0 -0 -0 0 0 0 0 0 0 0 0 0 0 0 0 0 0 0 0 0 0 0 0 0 0 0 0 0 0 0 0 0 0 0
-0 -0 -0 -0 -0 -0 -0 -0 -0 -0 -0 -0 -0 -0 0 0 0 0 0 0 0 0 0 0 0 0 0 0 0 0 0 0 0 0 0 0 0 0 0 0 0 0 0 0 0 0 0
-0 -0 -0 -0 -0 -0 -0 -0 -0 -0 -0 -0 -0 -0 0 0 0 0 0 -0 0 0 0 0 0 0 0 0 0 0 0 0 0 0 0 0 0 0 0 0 0 0 0 0 0 0 0
-0 -0 0 0 0 -0 -0 -0 -0 -0 -0 -0 -0 0 -0 0 0 0 0 0 0 0 0 0 0 0 0 0 0 0 0 0 0 0 0 0 0 0 0 0 0 0 0 0 0 0 0
0 -0 -0 -0 -0 -0 -0 -0 -0 -0 -0 -0 -0 0 -0 0 0 0 0 0 0 0 0 0 0 0 0 0 0 0 0 0 0 0 0 0 0 0 0 0 0 0 0 0 0 0 0
-0 -0 -0 -0 0 0 0 0 -0 -0 -0 -0 0 0 0 0 0 0 0 0 0 0 0 0 0 0 0 0 0 0 0 0 0 0 0 0 0 0 0 0 0 0 0 0 0 0 0
-0 -0 -0 -0 -0 0 0 0 0 -0 -0 -0 0 0 0 0 0 0 0 0 0 0 0 0 0 0 0 0 0 0 0 0 0 0 0 0 0 0 0 0 0 0 0 0 0 0 0
-0 0 -0 -0 0 0 0 0 -0 -0 -0 0 0 0 0 0 0 0 0 0 0 0 0 0 0 0 0 0 0 0 0 0 0 0 0 0 0 0 0 0 0 0 0 0 0 0 0
0 0 -0 -0 -0 -0 0 0 -0 -0 -0 0 0 0 0 0 0 0 0 0 0 0 0 0 0 0 0 0 0 0 0 0 0 0 0 0 0 0 0 0 0 0 0 0 0 0 0
0 0 0 0 0 -0 -0 0 -0 -0 0 0 0 0 0 0 0 0 0 0 0 0 0 0 0 0 0 0 0 0 0 0 0 0 0 0 0 0 0 0 0 0 0 0 0 0 0
0 0 0 0 -0 -0 -0 0 0 0 0 0 0 0 0 0 0 0 0 0 0 0 0 0 0 0 0 0 0 0 0 0 0 0 0 0 0 0 0 0 0 0 0 0 0 0 0
0 0 0 0 0 0 0 0 0 0 0 0 0 0 0 0 0 0 0 0 0 0 0 0 0 0 0 0 0 0 0 0 0 0 0 0 0 0 0 0 0 0 0 0 0 0 0
0 0 0 0 0 0 0 0 0 0 0 0 0 0 0 0 0 0 0 0 0 0 0 0 0 0 0 0 0 0 0 0 0 0 0 0 0 0 0 0 0 0 0 0 0 0 0
0 0 0 0 0 0 0 0 0 0 0 0 0 0 0 0 0 0 0 0 0 0 0 0 0 0 0 0 0 0 0 0 0 0 0 0 0 0 0 0 0 0 0 0 0 0 0
0 0 0 0 0 0 0 0 0 0 0 0 0 0 0 0 0 0 0 0 0 0 0 0 0 0 0 0 0 0 0 0 0 0 0 0 0 0 0 0 0 0 0 0 0 0 0
0 0 0 0 0 0 0 0 0 0 0 0 0 0 0 0 0 0 0 0 0 0 0 0 0 0 0 0 0 0 0 0 0 0 0 0 0 0 0 0 0 0 0 0 0 0 0
0 0 0 0 0 0 0 0 0 0 0 0 0 0 0 0 0 0 0 0 0 0 0 0 0 0 0 0 0 0 0 0 0 0 0 0 0 0 0 0 0 0 0 0 0 0 0
0 0 0 0 0 0 0 0 0 0 0 0 0 0 0 0 0 0 0 0 0 0 0 0 0 0 0 0 0 0 0 0 0 0 0 0 0 0 0 0 0 0 0 0 0 0 0
0 0 0 0 0 0 0 0 0 0 0 0 0 0 0 0 0 0 0 0 0 0 0 0 0 0 0 0 0 0 0 0 0 0 0 0 0 0 0 0 0 0 0 0 0 0 0
0 0 0 0 0 0 0 0 0 0 0 0 0 0 0 0 0 0 0 0 0 0 0 0 0 0 0 0 0 0 0 0 0 0 0 0 0 0 0 0 0 0 0 0 0 0 0
Wind_Speed_500mb
43 44 46 47 48 50 51 52 53 52 49 46 41 32 24 17 12 11 10 10 11 12 13 12 10 9 8 8 3 5 3 13 19 23 24 23 16 2 3 3 2 8 14 23 35 44 36
41 42 43 45 46 49 51 52 53 53 52 49 45 36 27 20 12 9 7 7 9 8 9 10 9 9 8 6 2 2 2 3 10 26 30 26 8 3 9 7 4 7 24 31 28 34 13
42 42 43 44 46 48 49 51 53 53 52 49 46 39 30 22 13 8 6 7 7 3 3 5 7 9 15 13 4 5 4 1 3 17 28 22 10 11 21 14 7 14 12 18 6 6 5
43 42 43 44 46 47 48 50 52 53 52 49 45 38 29 23 14 9 7 6 6 4 2 4 6 9 11 6 18 9 6 2 10 17 22 12 7 22 9 15 16 11 9 11 11 20 13
45 45 45 46 47 49 50 51 52 53 52 50 45 38 28 20 16 12 8 7 6 5 4 6 8 8 9 12 20 15 16 4 9 16 16 10 17 7 2 7 11 12 4 9 21 7 4
49 48 48 48 49 50 51 52 52 53 52 51 46 38 29 17 12 15 14 5 8 5 5 7 14 11 13 2 13 21 20 14 6 8 7 7 7 5 7 9 7 7 7 7 12 14 16
53 53 53 52 52 52 52 53 54 54 54 52 49 39 28 17 6 12 17 4 13 5 15 19 18 17 24 5 8 24 29 26 16 1 2 4 6 10 15 13 10 6 6 10 24 33 8
53 54 55 54 53 53 53 54 55 55 55 54 52 43 27 15 2 7 12 16 14 20 21 33 37 42 42 34 8 11 32 26 14 10 3 9 12 18 11 8 9 10 10 23 16 23 11
54 55 56 56 56 56 56 56 55 56 56 55 55 47 29 11 8 4 13 17 13 19 11 20 28 32 42 29 24 30 38 36 10 12 11 14 17 7 6 8 7 12 9 13 17 20 9
56 57 58 58 59 59 59 58 59 58 57 56 56 52 30 9 12 9 2 12 13 19 8 12 8 12 21 21 12 38 46 33 5 20 11 10 16 14 11 13 9 11 18 20 13 3 8
58 59 60 61 62 62 62 62 61 61 60 57 57 52 28 7 9 4 12 19 19 8 7 2 6 7 28 31 5 14 43 37 18 15 13 17 7 10 8 15 12 18 17 12 11 8 3
59 61 62 65 67 67 66 66 65 63 61 57 56 48 20 5 7 5 18 21 2 9 8 5 9 11 10 12 6 6 20 36 17 10 5 15 9 12 16 11 8 11 4 7 8 6 3
58 61 63 66 71 70 70 70 69 66 62 56 53 34 16 7 4 12 18 5 9 6 10 10 5 5 9 8 5 10 11 10 13 8 10 9 13 8 12 9 1 10 11 7 9 6 10
57 60 65 68 71 70 72 74 74 70 65 56 46 17 18 17 17 22 8 9 4 6 8 6 8 6 9 11 5 10 4 8 10 6 5 10 13 7 8 11 14 5 13 10 8 6 7
59 60 66 71 72 70 74 79 78 73 66 58 42 5 12 8 16 23 18 6 10 5 10 12 15 4 3 5 6 9 2 7 9 12 15 11 11 6 6 6 9 8 3 7 12 4 5
59 61 67 71 73 72 76 81 82 76 68 58 43 10 10 10 15 17 8 8 5 9 15 5 4 6 4 5 4 10 6 4 5 6 6 9 2 2 3 11 18 6 8 6 5 4 7
57 60 65 70 73 74 75 79 81 78 70 61 32 4 14 14 21 2 6 9 8 23 26 8 4 4 3 5 3 3 6 6 9 12 9 5 7 8 3 6 15 3 4 12 8 7 10
57 62 65 69 73 74 74 73 74 77 72 59 32 7 21 12 6 6 3 10 18 18 21 10 10 7 3 2 5 7 13 11 16 4 6 2 9 8 13 5 8 6 12 12 10 9 4
60 61 66 67 70 72 73 69 65 64 65 61 35 14 20 22 6 7 15 10 7 13 10 10 7 10 6 6 8 12 11 7 9 2 7 7 1 3 14 12 3 7 9 9 11 7 13
61 63 65 65 68 69 69 67 60 56 54 47 20 9 14 24 15 7 10 9 11 20 3 22 13 13 6 5 8 9 6 5 20 6 20 13 12 15 16 13 8 6 8 7 11 8 9
57 62 59 61 63 63 62 62 62 56 48 33 19 7 8 9 8 10 5 7 10 12 21 26 10 20 15 9 8 7 7 11 10 13 6 10 14 13 12 12 10 14 12 18 14 12 17
53 52 52 57 56 54 55 58 59 56 46 22 15 14 14 17 14 10 5 7 11 10 7 9 8 21 17 10 11 11 9 7 10 12 10 6 7 10 7 13 15 15 16 17 25 17 14
48 50 52 50 49 50 51 52 54 55 50 18 19 7 8 12 10 4 4 9 14 17 14 10 26 19 14 11 43 50 55 42 25 5 4 6 3 5 13 8 2 19 25 25 13 12 14
46 48 46 47 48 48 47 47 46 46 44 36 22 16 7 8 7 7 23 29 17 22 19 39 33 12 20 45 49 37 36 40 39 23 28 8 6 6 7 5 19 8 12 20 23 12 11
43 44 46 46 45 44 43 41 39 36 36 33 23 8 7 8 11 31 21 16 30 27 22 31 19 38 46 38 9 11 7 7 15 32 24 26 11 5 7 12 15 7 6 13 15 14 10
43 43 44 44 44 43 41 37 35 31 30 32 20 11 13 19 8 19 31 27 9 9 11 7 44 38 34 6 4 11 10 7 8 10 6 16 10 18 6 7 22 7 27 20 9 5 21
41 43 44 44 43 41 38 36 31 26 24 29 29 17 16 17 25 21 16 15 30 25 9 29 18 28 27 5 7 9 9 7 11 12 16 2 2 17 16 14 13 14 17 26 15 12 44
41 41 41 41 40 38 37 34 28 23 24 25 31 19 20 18 46 51 24 39 25 19 7 19 21 4 6 2 3 6 6 5 7 7 9 13 7 6 4 9 19 8 6 22 16 16 62
37 37 38 38 37 35 34 32 28 24 22 28 35 35 37 37 61 67 73 66 65 64 57 24 16 12 9 3 4 5 6 7 5 6 13 5 4 7 11 10 11 25 21 30 24 52 51
Wind_Direction_500mb
45 43 40 37 34 30 28 26 24 23 20 15 11 8 1 352 337 330 321 312 304 281 262 257 271 283 294 291 320 92 98 168 185 174 162 166 170 138 295 249 279 205 283 300 304 301 294
41 38 35 33 29 27 24 23 22 20 18 16 13 12 7 359 348 340 338 335 327 298 250 252 272 281 281 290 140 124 173 180 182 173 176 183 168 340 287 285 167 276 293 293 305 301 278
35 32 30 27 25 22 21 20 18 17 15 14 13 11 11 10 8 4 10 7 1 3 227 253 276 279 272 246 202 197 204 351 185 185 192 195 247 306 332 310 291 293 334 328 290 294 287
30 27 25 24 21 18 17 17 16 14 12 10 9 8 7 11 18 24 26 32 24 6 301 269 266 275 256 166 185 207 220 210 197 193 199 219 280 296 257 311 350 4 48 357 290 332 360
26 23 21 20 18 15 13 13 12 12 10 7 5 2 359 0 11 16 9 20 3 335 298 270 266 278 265 213 233 214 197 39 160 163 193 233 303 250 311 65 8 360 267 316 323 330 333
23 21 19 16 15 13 11 9 8 8 7 4 0 356 350 347 360 10 2 344 354 301 286 268 257 296 225 207 249 201 178 189 165 183 258 220 176 77 45 66 238 270 342 308 276 294 10
20 18 17 14 12 10 8 6 4 3 3 1 356 353 346 330 339 8 19 28 355 310 295 255 277 255 273 356 220 213 195 198 229 166 166 325 53 241 230 198 205 255 244 255 278 286 198
19 16 14 12 10 7 6 4 1 359 358 358 353 350 344 312 243 13 22 26 360 317 294 280 263 253 255 254 295 229 203 194 182 200 163 12 250 236 224 229 222 226 271 281 291 267 155
17 15 13 10 7 6 3 1 359 356 354 354 351 345 342 280 249 105 81 34 4 342 291 286 245 241 236 235 227 221 193 199 170 168 185 179 237 86 182 278 257 251 204 255 231 296 275
16 14 11 9 7 5 2 360 357 354 352 352 349 342 339 305 236 230 290 334 331 344 39 277 230 237 188 190 242 237 207 197 161 197 186 227 267 230 253 263 171 268 249 238 258 347 263
18 16 13 9 6 3 1 359 356 354 351 350 350 341 338 295 211 193 287 298 295 309 352 216 173 167 163 163 217 206 209 194 171 187 124 237 223 222 244 236 179 236 253 235 231 221 55
18 16 12 8 4 360 357 357 356 354 350 349 351 345 345 314 191 295 289 308 244 44 253 322 161 175 137 206 228 133 175 202 219 146 277 224 235 175 219 250 198 260 254 62 53 86 31
11 10 7 5 1 358 358 358 358 357 351 350 353 355 16 78 86 320 302 253 35 153 317 328 331 189 189 208 224 185 165 166 176 141 237 278 246 249 197 235 121 84 55 341 335 359 236
8 7 6 4 2 1 359 359 358 358 354 351 356 18 62 80 38 19 8 59 200 272 305 332 336 340 159 13 56 337 161 210 217 137 154 194 299 217 187 181 193 155 144 153 240 213 266
3 4 4 3 3 1 359 357 357 357 355 350 355 39 100 50 355 348 356 81 212 238 304 347 324 331 345 10 69 23 160 226 246 172 198 186 261 290 139 134 116 187 132 168 109 60 82
0 0 1 1 1 0 359 356 354 357 358 353 351 111 61 336 327 325 69 234 251 18 326 326 291 19 305 331 48 33 329 285 350 73 180 230 198 323 333 101 38 134 144 80 14 223 252
355 356 357 357 357 357 358 356 354 353 359 360 358 96 359 321 321 348 153 237 298 352 12 325 279 298 209 305 6 210 252 304 10 333 69 104 109 272 45 210 175 118 92 54 110 142 199
351 352 352 352 354 353 355 357 356 352 356 3 359 359 347 331 36 34 34 314 319 352 2 346 6 27 327 340 268 239 221 216 4 291 295 38 147 197 215 315 252 163 165 142 133 219 227
350 349 349 350 350 351 352 355 359 357 357 357 342 313 354 360 61 350 326 306 298 9 320 331 319 58 282 254 262 219 224 211 339 281 187 190 301 50 346 350 305 189 164 125 111 88 190
344 343 343 345 346 348 349 352 359 1 359 358 352 353 352 50 62 49 354 296 325 330 298 344 292 316 350 261 244 279 265 303 338 268 273 167 181 175 205 202 167 171 180 157 127 136 201
336 334 339 342 343 346 349 350 353 358 359 2 12 34 13 320 345 351 295 282 307 6 345 1 341 19 338 297 296 236 358 330 318 13 103 144 220 197 229 225 195 202 185 173 190 194 193
334 336 338 341 343 347 348 348 350 353 3 3 15 360 343 300 307 332 304 4 29 351 311 315 22 326 313 255 339 313 11 343 263 340 8 8 258 174 247 204 219 240 214 203 216 226 250
333 335 337 341 344 345 346 348 349 352 1 25 360 345 319 296 337 358 257 14 332 8 293 320 331 313 296 345 314 296 288 266 243 209 303 315 136 102 253 224 307 267 206 211 212 192 184
333 334 338 341 342 343 343 343 347 350 359 10 357 347 344 284 331 297 331 331 328 321 271 294 312 295 328 326 313 289 259 254 240 223 206 197 124 141 240 77 241 261 195 202 209 218 172
335 337 338 338 338 338 339 339 339 343 347 2 360 344 319 289 319 307 339 328 322 316 297 297 302 327 321 307 298 289 315 292 233 230 214 197 157 225 189 209 279 283 216 175 172 236 179
335 334 334 334 335 335 334 334 336 333 339 342 355 339 300 302 258 302 315 309 301 324 301 270 321 321 333 266 240 227 235 241 276 309 209 218 239 203 164 202 235 207 206 183 100 226 172
332 333 335 334 333 333 334 333 335 332 328 330 336 335 311 271 284 301 266 278 294 283 266 301 332 325 306 296 243 237 255 240 235 209 274 89 184 212 237 225 279 253 259 177 198 228 172
334 335 337 339 339 339 338 335 332 331 320 315 315 330 321 285 289 285 293 265 276 275 281 304 333 290 324 275 247 268 255 274 296 267 202 199 184 206 101 206 254 263 246 204 221 158 170
341 343 344 343 343 344 345 344 338 323 318 310 304 319 315 291 279 291 290 280 270 270 262 245 235 283 287 352 13 344 330 317 313 264 340 288 213 209 185 216 283 315 284 293 202 167 161
Wind_Speed_850mb
43 44 46 47 48 50 51 52 53 52 49 46 41 32 24 17 12 11 10 10 11 12 13 12 10 9 8 8 3 5 3 13 19 23 24 23 16 2 3 3 2 8 14 23 35 44 36
41 42 43 45 46 49 51 52 53 53 52 49 45 36 27 20 12 9 7 7 9 8 9 10 9 9 8 6 2 2 2 3 10 26 30 26 8 3 9 7 4 7 24 31 28 34 13
42 42 43 44 46 48 49 51 53 53 52 49 46 39 30 22 13 8 6 7 7 3 3 5 7 9 15 13 4 5 4 1 3 17 28 22 10 11 21 14 7 14 12 18 6 6 5
43 42 43 44 46 47 48 50 52 53 52 49 45 38 29 23 14 9 7 6 6 4 2 4 6 9 11 6 18 9 6 2 10 17 22 12 7 22 9 15 16 11 9 11 11 20 13
45 45 45 46 47 49 50 51 52 53 52 50 45 38 28 20 16 12 8 7 6 5 4 6 8 8 9 12 20 15 16 4 9 16 16 10 17 7 2 7 11 12 4 9 21 7 4
49 48 48 48 49 50 51 52 52 53 52 51 46 38 29 17 12 15 14 5 8 5 5 7 14 11 13 2 13 21 20 14 6 8 7 7 7 5 7 9 7 7 7 7 12 14 16
53 53 53 52 52 52 52 53 54 54 54 52 49 39 28 17 6 12 17 4 13 5 15 19 18 17 24 5 8 24 29 26 16 1 2 4 6 10 15 13 10 6 6 10 24 33 8
53 54 55 54 53 53 53 54 55 55 55 54 52 43 27 15 2 7 12 16 14 20 21 33 37 42 42 34 8 11 32 26 14 10 3 9 12 18 11 8 9 10 10 23 16 23 11
54 55 56 56 56 56 56 56 55 56 56 55 55 47 29 11 8 4 13 17 13 19 11 20 28 32 42 29 24 30 38 36 10 12 11 14 17 7 6 8 7 12 9 13 17 20 9
56 57 58 58 59 59 59 58 59 58 57 56 56 52 30 9 12 9 2 12 13 19 8 12 8 12 21 21 12 38 46 33 5 20 11 10 16 14 11 13 9 11 18 20 13 3 8
58 59 60 61 62 62 62 62 61 61 60 57 57 52 28 7 9 4 12 19 19 8 7 2 6 7 28 31 5 14 43 37 18 15 13 17 7 10 8 15 12 18 17 12 11 8 3
59 61 62 65 67 67 66 66 65 63 61 57 56 48 20 5 7 5 18 21 2 9 8 5 9 11 10 12 6 6 20 36 17 10 5 15 9 12 16 11 8 11 4 7 8 6 3
58 61 63 66 71 70 70 70 69 66 62 56 53 34 16 7 4 12 18 5 9 6 10 10 5 5 9 8 5 10 11 10 13 8 10 9 13 8 12 9 1 10 11 7 9 6 10
57 60 65 68 71 70 72 74 74 70 65 56 46 17 18 17 17 22 8 9 4 6 8 6 8 6 9 11 5 10 4 8 10 6 5 10 13 7 8 11 14 5 13 10 8 6 7
59 60 66 71 72 70 74 79 78 73 66 58 42 5 12 8 16 23 18 6 10 5 10 12 15 4 3 5 6 9 2 7 9 12 15 11 11 6 6 6 9 8 3 7 12 4 5
59 61 67 71 73 72 76 81 82 76 68 58 43 10 10 10 15 17 8 8 5 9 15 5 4 6 4 5 4 10 6 4 5 6 6 9 2 2 3 11 18 6 8 6 5 4 7
57 60 65 70 73 74 75 79 81 78 70 61 32 4 14 14 21 2 6 9 8 23 26 8 4 4 3 5 3 3 6 6 9 12 9 5 7 8 3 6 15 3 4 12 8 7 10
57 62 65 69 73 74 74 73 74 77 72 59 32 7 21 12 6 6 3 10 18 18 21 10 10 7 3 2 5 7 13 11 16 4 6 2 9 8 13 5 8 6 12 12 10 9 4
60 61 66 67 70 72 73 69 65 64 65 61 35 14 20 22 6 7 15 10 7 13 10 10 7 10 6 6 8 12 11 7 9 2 7 7 1 3 14 12 3 7 9 9 11 7 13
61 63 65 65 68 69 69 67 60 56 54 47 20 9 14 24 15 7 10 9 11 20 3 22 13 13 6 5 8 9 6 5 20 6 20 13 12 15 16 13 8 6 8 7 11 8 9
57 62 59 61 63 63 62 62 62 56 48 33 19 7 8 9 8 10 5 7 10 12 21 26 10 20 15 9 8 7 7 11 10 13 6 10 14 13 12 12 10 14 12 18 14 12 17
53 52 52 57 56 54 55 58 59 56 46 22 15 14 14 17 14 10 5 7 11 10 7 9 8 21 17 10 11 11 9 7 10 12 10 6 7 10 7 13 15 15 16 17 25 17 14
48 50 52 50 49 50 51 52 54 55 50 18 19 7 8 12 10 4 4 9 14 17 14 10 26 19 14 11 43 50 55 42 25 5 4 6 3 5 13 8 2 19 25 25 13 12 14
46 48 46 47 48 48 47 47 46 46 44 36 22 16 7 8 7 7 23 29 17 22 19 39 33 12 20 45 49 37 36 40 39 23 28 8 6 6 7 5 19 8 12 20 23 12 11
43 44 46 46 45 44 43 41 39 36 36 33 23 8 7 8 11 31 21 16 30 27 22 31 19 38 46 38 9 11 7 7 15 32 24 26 11 5 7 12 15 7 6 13 15 14 10
43 43 44 44 44 43 41 37 35 31 30 32 20 11 13 19 8 19 31 27 9 9 11 7 44 38 34 6 4 11 10 7 8 10 6 16 10 18 6 7 22 7 27 20 9 5 21
41 43 44 44 43 41 38 36 31 26 24 29 29 17 16 17 25 21 16 15 30 25 9 29 18 28 27 5 7 9 9 7 11 12 16 2 2 17 16 14 13 14 17 26 15 12 44
41 41 41 41 40 38 37 34 28 23 24 25 31 19 20 18 46 51 24 39 25 19 7 19 21 4 6 2 3 6 6 5 7 7 9 13 7 6 4 9 19 8 6 22 16 16 62
37 37 38 38 37 35 34 32 28 24 22 28 35 35 37 37 61 67 73 66 65 64 57 24 16 12 9 3 4 5 6 7 5 6 13 5 4 7 11 10 11 25 21 30 24 52 51
Wind_Direction_850mb
45 43 40 37 34 30 28 26 24 23 20 15 11 8 1 352 337 330 321 312 304 281 262 257 271 283 294 291 320 92 98 168 185 174 162 166 170 138 295 249 279 205 283 300 304 301 294
41 38 35 33 29 27 24 23 22 20 18 16 13 12 7 359 348 340 338 335 327 298 250 252 272 281 281 290 140 124 173 180 182 173 176 183 168 340 287 285 167 276 293 293 305 301 278
35 32 30 27 25 22 21 20 18 17 15 14 13 11 11 10 8 4 10 7 1 3 227 253 276 279 272 246 202 197 204 351 185 185 192 195 247 306 332 310 291 293 334 328 290 294 287
30 27 25 24 21 18 17 17 16 14 12 10 9 8 7 11 18 24 26 32 24 6 301 269 266 275 256 166 185 207 220 210 197 193 199 219 280 296 257 311 350 4 48 357 290 332 360
26 23 21 20 18 15 13 13 12 12 10 7 5 2 359 0 11 16 9 20 3 335 298 270 266 278 265 213 233 214 197 39 160 163 193 233 303 250 311 65 8 360 267 316 323 330 333
23 21 19 16 15 13 11 9 8 8 7 4 0 356 350 347 360 10 2 344 354 301 286 268 257 296 225 207 249 201 178 189 165 183 258 220 176 77 45 66 238 270 342 308 276 294 10
20 18 17 14 12 10 8 6 4 3 3 1 356 353 346 330 339 8 19 28 355 310 295 255 277 255 273 356 220 213 195 198 229 166 166 325 53 241 230 198 205 255 244 255 278 286 198
19 16 14 12 10 7 6 4 1 359 358 358 353 350 344 312 243 13 22 26 360 317 294 280 263 253 255 254 295 229 203 194 182 200 163 12 250 236 224 229 222 226 271 281 291 267 155
17 15 13 10 7 6 3 1 359 356 354 354 351 345 342 280 249 105 81 34 4 342 291 286 245 241 236 235 227 221 193 199 170 168 185 179 237 86 182 278 257 251 204 255 231 296 275
16 14 11 9 7 5 2 360 357 354 352 352 349 342 339 305 236 230 290 334 331 344 39 277 230 237 188 190 242 237 207 197 161 197 186 227 267 230 253 263 171 268 249 238 258 347 263
18 16 13 9 6 3 1 359 356 354 351 350 350 341 338 295 211 193 287 298 295 309 352 216 173 167 163 163 217 206 209 194 171 187 124 237 223 222 244 236 179 236 253 235 231 221 55
18 16 12 8 4 360 357 357 356 354 350 349 351 345 345 314 191 295 289 308 244 44 253 322 161 175 137 206 228 133 175 202 219 146 277 224 235 175 219 250 198 260 254 62 53 86 31
11 10 7 5 1 358 358 358 358 357 351 350 353 355 16 78 86 320 302 253 35 153 317 328 331 189 189 208 224 185 165 166 176 141 237 278 246 249 197 235 121 84 55 341 335 359 236
8 7 6 4 2 1 359 359 358 358 354 351 356 18 62 80 38 19 8 59 200 272 305 332 336 340 159 13 56 337 161 210 217 137 154 194 299 217 187 181 193 155 144 153 240 213 266
3 4 4 3 3 1 359 357 357 357 355 350 355 39 100 50 355 348 356 81 212 238 304 347 324 331 345 10 69 23 160 226 246 172 198 186 261 290 139 134 116 187 132 168 109 60 82
0 0 1 1 1 0 359 356 354 357 358 353 351 111 61 336 327 325 69 234 251 18 326 326 291 19 305 331 48 33 329 285 350 73 180 230 198 323 333 101 38 134 144 80 14 223 252
355 356 357 357 357 357 358 356 354 353 359 360 358 96 359 321 321 348 153 237 298 352 12 325 279 298 209 305 6 210 252 304 10 333 69 104 109 272 45 210 175 118 92 54 110 142 199
351 352 352 352 354 353 355 357 356 352 356 3 359 359 347 331 36 34 34 314 319 352 2 346 6 27 327 340 268 239 221 216 4 291 295 38 147 197 215 315 252 163 165 142 133 219 227
350 349 349 350 350 351 352 355 359 357 357 357 342 313 354 360 61 350 326 306 298 9 320 331 319 58 282 254 262 219 224 211 339 281 187 190 301 50 346 350 305 189 164 125 111 88 190
344 343 343 345 346 348 349 352 359 1 359 358 352 353 352 50 62 49 354 296 325 330 298 344 292 316 350 261 244 279 265 303 338 268 273 167 181 175 205 202 167 171 180 157 127 136 201
336 334 339 342 343 346 349 350 353 358 359 2 12 34 13 320 345 351 295 282 307 6 345 1 341 19 338 297 296 236 358 330 318 13 103 144 220 197 229 225 195 202 185 173 190 194 193
334 336 338 341 343 347 348 348 350 353 3 3 15 360 343 300 307 332 304 4 29 351 311 315 22 326 313 255 339 313 11 343 263 340 8 8 258 174 247 204 219 240 214 203 216 226 250
333 335 337 341 344 345 346 348 349 352 1 25 360 345 319 296 337 358 257 14 332 8 293 320 331 313 296 345 314 296 288 266 243 209 303 315 136 102 253 224 307 267 206 211 212 192 184
333 334 338 341 342 343 343 343 347 350 359 10 357 347 344 284 331 297 331 331 328 321 271 294 312 295 328 326 313 289 259 254 240 223 206 197 124 141 240 77 241 261 195 202 209 218 172
335 337 338 338 338 338 339 339 339 343 347 2 360 344 319 289 319 307 339 328 322 316 297 297 302 327 321 307 298 289 315 292 233 230 214 197 157 225 189 209 279 283 216 175 172 236 179
335 334 334 334 335 335 334 334 336 333 339 342 355 339 300 302 258 302 315 309 301 324 301 270 321 321 333 266 240 227 235 241 276 309 209 218 239 203 164 202 235 207 206 183 100 226 172
332 333 335 334 333 333 334 333 335 332 328 330 336 335 311 271 284 301 266 278 294 283 266 301 332 325 306 296 243 237 255 240 235 209 274 89 184 212 237 225 279 253 259 177 198 228 172
334 335 337 339 339 339 338 335 332 331 320 315 315 330 321 285 289 285 293 265 276 275 281 304 333 290 324 275 247 268 255 274 296 267 202 199 184 206 101 206 254 263 246 204 221 158 170
341 343 344 343 343 344 345 344 338 323 318 310 304 319 315 291 279 291 290 280 270 270 262 245 235 283 287 352 13 344 330 317 313 264 340 288 213 209 185 216 283 315 284 293 202 167 161